sat.trackr.live / text

‹ back to catalog

STARLINK-35869

NORAD 66353 · 2025-254F

PAYLOAD ACTIVE UNKNOWN

§ Identity

Operator
Country
US
Launch date
2025-11-06
Launch site
AFWTR
Launch vehicle
Mass (kg)
RCS (m²)

Purposes: comms

External: N2YO · Heavens-Above · Gunter

§ Orbital elements

Epoch: 2026-09-20T21:47:58.383168Z

Period
93.85 min
Inclination
53.1595°
Eccentricity
0.0001276
Mean motion
15.34403992 rev/d
Perigee alt
461.8 km
Apogee alt
463.6 km
Semi-major
6,840.8 km
B*
4.6727e-4
RAAN
43.6163°
Arg perigee
82.4556°
Mean anomaly
277.6592°
Rev number
4,889

§ Raw data

STARLINK-358691 66353U 25254F   26263.90831462  .00015446  00000+0  46727-3 0  99912 66353  53.1595  43.6163 0001276  82.4556 277.6592 15.34403992 48899

JSON: /api/v1/satellites/66353 · /tle

For live sub-satellite position, see the globe view (requires WebGL).

§ Visibility from observer

Set your observer location to see the next 7 days of passes ≥ 10°. The values pass through the URL so the page stays shareable.

No JS? Fill the form by hand. The geolocation button needs JavaScript.